Flag for Canada Weather past 2 weeks in Prince Albert, Saskatchewan, Canada

Now
63 °F

Passing clouds.


Feels Like: 63 °F
Forecast: 41 / 64 °F
Wind: 10 mph from North

Location: Prince Albert

Current Time: Aug 29, 2014 at 2:13:47 PM

Latest Report: Aug 29, 2014 at 1:00 PM


Visibility: 15 mi

Pressure: 30.02 "Hg

Humidity: 45%

Dew point: 41 °F

Location of Prince AlbertLocation

Historic Weather in Prince Albert — Graph

°F

Prince Albert temperature yesterday

Maximum temperature yesterday: 72 °F (at 3:00 PM)
Minimum temperature yesterday: 50 °F (at 3:00 AM)
Average temperature yesterday: 59 °F

Past Weeks' High & Low Weather Summary

 TemperatureHumidityPressure
High86 °F (Aug 14, 4:00 PM)100% (Aug 15, 10:00 PM)30.39 "Hg (Aug 15, 10:00 PM)
Low37 °F (Aug 26, 4:00 AM)40% (Aug 18, 2:00 PM)29.62 "Hg (Aug 20, 2:00 AM)
Average61 °F79%29.96 "Hg
* Reported Aug 14 1:00 PM — Aug 29 1:00 PM, Prince Albert, Weather by CustomWeather, © 2014

Note: Actual official high and low records may vary slightly from our data, if they occured in-between our weather recording intervals... More about our weather records

Advertising

Prince Albert weather history for previous 24 hours

 ConditionsComfort  
Time TempWeatherWind HumidityBarometerVisibility
1:00 PM
Aug 29
63 °FPassing clouds.10 mph45%30.02 "Hg15 mi
12:00 PM61 °FPassing clouds.3 mph45%30.04 "Hg15 mi
11:00 AM57 °FSunny.No wind51%30.06 "Hg15 mi
10:00 AM55 °FPassing clouds.8 mph55%30.08 "Hg15 mi
9:00 AM52 °FSunny.3 mph77%30.08 "Hg15 mi
8:00 AM46 °FSunny.3 mph87%30.08 "Hg15 mi
7:00 AM37 °FSunny.2 mph100%30.07 "Hg15 mi
6:00 AM37 °FClear.3 mph93%30.06 "Hg15 mi
5:00 AM39 °FPassing clouds.No wind93%30.05 "Hg15 mi
4:00 AM43 °FClear.2 mph93%30.03 "Hg15 mi
3:00 AM41 °FClear.6 mph93%30.02 "Hg15 mi
2:00 AM46 °FPassing clouds.3 mph82%30.00 "Hg15 mi
1:00 AM50 °FPassing clouds.5 mph76%29.99 "Hg15 mi
12:00 AM54 °FPassing clouds.12 mph77%29.97 "Hg15 mi
11:00 PM
Aug 28
55 °FPassing clouds.9 mph77%29.95 "Hg15 mi
10:00 PM52 °FPassing clouds.9 mph88%29.93 "Hg15 mi
9:00 PM55 °FPartly cloudy.6 mph82%29.91 "Hg15 mi
8:00 PM59 °FMostly cloudy.6 mph94%29.89 "Hg15 mi
7:00 PM63 °FOvercast.6 mph77%29.88 "Hg15 mi
6:00 PM63 °FMostly cloudy.10 mph73%29.86 "Hg15 mi
5:00 PM64 °FSprinkles. Mostly cloudy.7 mph78%29.85 "Hg15 mi
4:00 PM72 °FPartly sunny.12 mph50%29.83 "Hg15 mi
3:00 PM72 °FBroken clouds.14 mph53%29.83 "Hg15 mi
2:00 PM70 °FBroken clouds.6 mph64%29.84 "Hg15 mi
Weather by CustomWeather, © 2014

See weather overviewHow to use our weather pages